TimeMST,TemperatureF,Dew PointF,Humidity,Sea Level PressureIn,VisibilityMPH,Wind Direction,Wind SpeedMPH,Gust SpeedMPH,PrecipitationIn,Events,Conditions,WindDirDegrees,DateUTC
12:53 AM,17.1,10.9,77,30.03,10.0,WSW,9.2,-,N/A,,Overcast,240,2012-12-28 07:53:00
1:53 AM,18.0,10.9,74,30.03,10.0,SW,9.2,-,N/A,,Overcast,220,2012-12-28 08:53:00
2:53 AM,19.9,12.0,71,30.02,10.0,WSW,5.8,-,N/A,,Overcast,250,2012-12-28 09:53:00
3:53 AM,19.0,12.9,77,30.02,10.0,West,6.9,-,N/A,,Overcast,260,2012-12-28 10:53:00
4:53 AM,19.0,12.9,77,30.03,10.0,West,5.8,-,N/A,,Overcast,280,2012-12-28 11:53:00
5:53 AM,17.1,10.9,77,30.06,10.0,WNW,5.8,-,N/A,,Overcast,290,2012-12-28 12:53:00
6:53 AM,16.0,10.9,81,30.09,10.0,WNW,5.8,-,N/A,,Overcast,290,2012-12-28 13:53:00
7:53 AM,16.0,10.9,81,30.11,10.0,WNW,8.1,-,N/A,,Scattered Clouds,290,2012-12-28 14:53:00
8:53 AM,23.0,16.0,74,30.11,10.0,WNW,5.8,-,N/A,,Clear,300,2012-12-28 15:53:00
9:53 AM,27.0,16.0,63,30.13,10.0,WNW,9.2,-,N/A,,Clear,290,2012-12-28 16:53:00
10:53 AM,30.0,17.1,59,30.09,10.0,West,5.8,-,N/A,,Clear,280,2012-12-28 17:53:00
11:53 AM,33.1,17.1,52,30.07,10.0,WNW,12.7,-,N/A,,Clear,290,2012-12-28 18:53:00
12:53 PM,34.0,17.1,50,30.04,10.0,WNW,9.2,-,N/A,,Clear,290,2012-12-28 19:53:00
1:53 PM,35.1,15.1,44,30.04,10.0,NW,6.9,-,N/A,,Clear,310,2012-12-28 20:53:00
2:53 PM,37.0,14.0,39,30.04,10.0,NNW,13.8,-,N/A,,Clear,340,2012-12-28 21:53:00
3:53 PM,35.1,12.0,39,30.08,10.0,North,16.1,-,N/A,,Clear,360,2012-12-28 22:53:00
4:53 PM,28.0,15.1,58,30.12,10.0,NNE,4.6,-,N/A,,Clear,20,2012-12-28 23:53:00
5:53 PM,28.9,14.0,54,30.15,10.0,Calm,Calm,-,N/A,,Clear,0,2012-12-29 00:53:00
6:53 PM,27.0,12.0,53,30.18,10.0,Calm,Calm,-,N/A,,Clear,0,2012-12-29 01:53:00
7:53 PM,28.9,12.9,51,30.19,10.0,Calm,Calm,-,N/A,,Scattered Clouds,0,2012-12-29 02:53:00
8:53 PM,21.0,10.0,63,30.21,10.0,West,12.7,-,N/A,,Clear,260,2012-12-29 03:53:00
9:53 PM,21.0,10.0,63,30.23,10.0,WSW,13.8,-,N/A,,Clear,250,2012-12-29 04:53:00
10:53 PM,18.0,9.0,68,30.24,10.0,West,12.7,-,N/A,,Clear,260,2012-12-29 05:53:00
11:53 PM,14.0,7.0,74,30.24,10.0,West,15.0,-,N/A,,Clear,270,2012-12-29 06:53:00